Time,TemperatureF,DewpointF,PressureIn,WindDirection,WindDirectionDegrees,WindSpeedMPH,WindSpeedGustMPH,Humidity,HourlyPrecipIn,Conditions,Clouds,dailyrainin,SolarRadiationWatts/m^2,SoftwareType,DateUTC
2013-02-14 00:00:00,19.1,11.0,30.61,SSW,195,1.0,2.0,70,0.00,,,0.00,0,LWC V2.00 B727,2013-02-14 07:00:00,
2013-02-14 00:05:00,19.0,10.5,30.61,SSW,194,1.0,3.0,69,0.00,,,0.00,0,LWC V2.00 B727,2013-02-14 07:05:00,
2013-02-14 00:10:00,18.9,10.4,30.61,SSW,194,0.0,1.0,69,0.00,,,0.00,0,LWC V2.00 B727,2013-02-14 07:10:00,
2013-02-14 00:15:00,18.6,10.1,30.61,SSW,194,0.0,0.0,69,0.00,,,0.00,0,LWC V2.00 B727,2013-02-14 07:15:00,
2013-02-14 00:20:00,18.5,10.4,30.61,SSW,194,0.0,1.0,70,0.00,,,0.00,0,LWC V2.00 B727,2013-02-14 07:20:00,
2013-02-14 00:25:00,18.3,10.5,30.61,SSW,194,1.0,2.0,71,0.00,,,0.00,0,LWC V2.00 B727,2013-02-14 07:25:00,
2013-02-14 00:30:00,18.2,10.1,30.61,SSW,194,0.0,0.0,70,0.00,,,0.00,0,LWC V2.00 B727,2013-02-14 07:30:00,
2013-02-14 00:35:00,18.1,10.3,30.61,SSW,194,0.0,2.0,71,0.00,,,0.00,0,LWC V2.00 B727,2013-02-14 07:35:00,
2013-02-14 00:40:00,18.0,10.2,30.61,SSW,194,0.0,0.0,71,0.00,,,0.00,0,LWC V2.00 B727,2013-02-14 07:40:00,
2013-02-14 00:45:00,17.9,9.8,30.61,SSW,194,0.0,1.0,70,0.00,,,0.00,0,LWC V2.00 B727,2013-02-14 07:45:00,
2013-02-14 00:50:00,17.7,9.9,30.61,SSW,194,0.0,1.0,71,0.00,,,0.00,0,LWC V2.00 B727,2013-02-14 07:50:00,
2013-02-14 00:55:00,17.6,10.1,30.61,SSW,194,1.0,1.0,72,0.00,,,0.00,0,LWC V2.00 B727,2013-02-14 07:55:00,
2013-02-14 01:00:00,17.6,10.1,30.60,SSW,194,1.0,1.0,72,0.00,,,0.00,0,LWC V2.00 B727,2013-02-14 08:00:00,
2013-02-14 01:05:00,17.6,10.1,30.61,SSW,194,0.0,1.0,72,0.00,,,0.00,0,LWC V2.00 B727,2013-02-14 08:05:00,
2013-02-14 01:10:00,17.4,9.9,30.61,SSW,194,2.0,2.0,72,0.00,,,0.00,0,LWC V2.00 B727,2013-02-14 08:10:00,
2013-02-14 01:15:00,17.4,9.9,30.61,SSW,194,0.0,0.0,72,0.00,,,0.00,0,LWC V2.00 B727,2013-02-14 08:15:00,
2013-02-14 01:20:00,17.1,9.7,30.61,SSW,194,1.0,2.0,72,0.00,,,0.00,0,LWC V2.00 B727,2013-02-14 08:20:00,
2013-02-14 01:25:00,16.9,9.8,30.60,SSW,194,1.0,2.0,73,0.00,,,0.00,0,LWC V2.00 B727,2013-02-14 08:25:00,
2013-02-14 01:30:00,16.7,9.6,30.60,SSW,194,2.0,4.0,73,0.00,,,0.00,0,LWC V2.00 B727,2013-02-14 08:30:00,
2013-02-14 01:35:00,16.8,9.7,30.60,SSW,192,0.0,3.0,73,0.00,,,0.00,0,LWC V2.00 B727,2013-02-14 08:35:00,
2013-02-14 01:40:00,16.9,9.8,30.60,SSW,192,1.0,3.0,73,0.00,,,0.00,0,LWC V2.00 B727,2013-02-14 08:40:00,
2013-02-14 01:45:00,17.0,9.6,30.61,SSW,192,2.0,3.0,72,0.00,,,0.00,0,LWC V2.00 B727,2013-02-14 08:45:00,
2013-02-14 01:50:00,17.2,9.8,30.61,South,191,0.0,2.0,72,0.00,,,0.00,0,LWC V2.00 B727,2013-02-14 08:50:00,
2013-02-14 01:55:00,17.4,9.6,30.60,South,191,1.0,2.0,71,0.00,,,0.00,0,LWC V2.00 B727,2013-02-14 08:55:00,
2013-02-14 02:00:00,17.3,9.5,30.60,SSW,192,0.0,2.0,71,0.00,,,0.00,0,LWC V2.00 B727,2013-02-14 09:00:00,
2013-02-14 02:05:00,17.2,9.4,30.60,SSW,192,1.0,2.0,71,0.00,,,0.00,0,LWC V2.00 B727,2013-02-14 09:05:00,
2013-02-14 02:10:00,17.1,9.3,30.60,South,191,1.0,1.0,71,0.00,,,0.00,0,LWC V2.00 B727,2013-02-14 09:10:00,
2013-02-14 02:15:00,17.1,9.3,30.60,South,191,1.0,2.0,71,0.00,,,0.00,0,LWC V2.00 B727,2013-02-14 09:15:00,
2013-02-14 02:20:00,17.1,9.3,30.60,SSW,192,0.0,2.0,71,0.00,,,0.00,0,LWC V2.00 B727,2013-02-14 09:20:00,
2013-02-14 02:25:00,17.1,9.3,30.60,SSW,192,0.0,2.0,71,0.00,,,0.00,0,LWC V2.00 B727,2013-02-14 09:25:00,
2013-02-14 02:30:00,17.1,9.7,30.60,SSW,192,2.0,3.0,72,0.00,,,0.00,0,LWC V2.00 B727,2013-02-14 09:30:00,
2013-02-14 02:35:00,17.3,9.5,30.59,South,191,2.0,3.0,71,0.00,,,0.00,0,LWC V2.00 B727,2013-02-14 09:35:00,
2013-02-14 02:40:00,17.3,9.5,30.59,South,191,0.0,1.0,71,0.00,,,0.00,0,LWC V2.00 B727,2013-02-14 09:40:00,
2013-02-14 02:45:00,17.2,9.4,30.59,South,191,1.0,1.0,71,0.00,,,0.00,0,LWC V2.00 B727,2013-02-14 09:45:00,
2013-02-14 02:50:00,16.7,9.0,30.58,South,191,2.0,2.0,71,0.00,,,0.00,0,LWC V2.00 B727,2013-02-14 09:50:00,
2013-02-14 02:55:00,16.4,9.0,30.58,South,191,2.0,2.0,72,0.00,,,0.00,0,LWC V2.00 B727,2013-02-14 09:55:00,
2013-02-14 03:00:00,17.0,9.6,30.57,South,191,0.0,3.0,72,0.00,,,0.00,0,LWC V2.00 B727,2013-02-14 10:00:00,
2013-02-14 03:05:00,17.1,9.3,30.57,South,191,1.0,1.0,71,0.00,,,0.00,0,LWC V2.00 B727,2013-02-14 10:05:00,
2013-02-14 03:10:00,17.2,9.4,30.57,South,191,1.0,3.0,71,0.00,,,0.00,0,LWC V2.00 B727,2013-02-14 10:10:00,
2013-02-14 03:15:00,17.3,9.5,30.56,South,191,1.0,3.0,71,0.00,,,0.00,0,LWC V2.00 B727,2013-02-14 10:15:00,
2013-02-14 03:20:00,17.3,9.2,30.56,South,191,0.0,2.0,70,0.00,,,0.00,0,LWC V2.00 B727,2013-02-14 10:20:00,
2013-02-14 03:25:00,17.2,9.1,30.56,South,191,2.0,3.0,70,0.00,,,0.00,0,LWC V2.00 B727,2013-02-14 10:25:00,
2013-02-14 03:30:00,17.2,9.1,30.55,South,191,2.0,2.0,70,0.00,,,0.00,0,LWC V2.00 B727,2013-02-14 10:30:00,
2013-02-14 03:35:00,17.2,9.1,30.55,South,191,1.0,2.0,70,0.00,,,0.00,0,LWC V2.00 B727,2013-02-14 10:35:00,
2013-02-14 03:40:00,17.6,9.8,30.54,South,190,2.0,2.0,71,0.00,,,0.00,0,LWC V2.00 B727,2013-02-14 10:40:00,
2013-02-14 03:45:00,17.9,9.5,30.54,South,190,2.0,3.0,69,0.00,,,0.00,0,LWC V2.00 B727,2013-02-14 10:45:00,
2013-02-14 03:50:00,17.9,9.5,30.54,South,190,2.0,2.0,69,0.00,,,0.00,0,LWC V2.00 B727,2013-02-14 10:50:00,
2013-02-14 03:55:00,17.9,9.2,30.54,South,190,2.0,4.0,68,0.00,,,0.00,0,LWC V2.00 B727,2013-02-14 10:55:00,
2013-02-14 04:00:00,18.0,9.2,30.54,South,190,2.0,5.0,68,0.00,,,0.00,0,LWC V2.00 B727,2013-02-14 11:00:00,
2013-02-14 04:05:00,18.0,9.2,30.54,South,190,1.0,2.0,68,0.00,,,0.00,0,LWC V2.00 B727,2013-02-14 11:05:00,
2013-02-14 04:10:00,18.0,9.2,30.54,South,190,0.0,4.0,68,0.00,,,0.00,0,LWC V2.00 B727,2013-02-14 11:10:00,
2013-02-14 04:15:00,18.0,9.2,30.54,South,190,3.0,3.0,68,0.00,,,0.00,0,LWC V2.00 B727,2013-02-14 11:15:00,
2013-02-14 04:20:00,18.1,9.3,30.55,South,190,3.0,3.0,68,0.00,,,0.00,0,LWC V2.00 B727,2013-02-14 11:20:00,
2013-02-14 04:25:00,18.2,9.4,30.55,South,190,1.0,1.0,68,0.00,,,0.00,0,LWC V2.00 B727,2013-02-14 11:25:00,
2013-02-14 04:30:00,18.2,9.1,30.55,South,190,0.0,2.0,67,0.00,,,0.00,0,LWC V2.00 B727,2013-02-14 11:30:00,
2013-02-14 04:35:00,18.1,9.0,30.55,South,190,0.0,0.0,67,0.00,,,0.00,0,LWC V2.00 B727,2013-02-14 11:35:00,
2013-02-14 04:40:00,17.9,8.5,30.56,South,190,0.0,0.0,66,0.00,,,0.00,0,LWC V2.00 B727,2013-02-14 11:40:00,
2013-02-14 04:45:00,17.6,7.9,30.56,South,190,0.0,0.0,65,0.00,,,0.00,0,LWC V2.00 B727,2013-02-14 11:45:00,
2013-02-14 04:50:00,17.2,8.2,30.56,South,190,0.0,1.0,67,0.00,,,0.00,0,LWC V2.00 B727,2013-02-14 11:50:00,
2013-02-14 04:55:00,16.7,8.3,30.56,South,190,0.0,0.0,69,0.00,,,0.00,0,LWC V2.00 B727,2013-02-14 11:55:00,
2013-02-14 05:00:00,16.4,8.0,30.56,South,190,0.0,0.0,69,0.00,,,0.00,0,LWC V2.00 B727,2013-02-14 12:00:00,
2013-02-14 05:05:00,16.2,8.2,30.56,South,190,0.0,1.0,70,0.00,,,0.00,0,LWC V2.00 B727,2013-02-14 12:05:00,
2013-02-14 05:10:00,16.0,8.6,30.56,South,190,0.0,2.0,72,0.00,,,0.00,0,LWC V2.00 B727,2013-02-14 12:10:00,
2013-02-14 05:15:00,16.2,8.8,30.56,South,190,2.0,2.0,72,0.00,,,0.00,0,LWC V2.00 B727,2013-02-14 12:15:00,
2013-02-14 05:18:00,16.3,8.9,30.55,South,190,0.0,3.0,72,0.00,,,0.00,0,LWC V2.00 B727,2013-02-14 12:18:00,
2013-02-14 05:23:00,16.5,8.8,30.55,South,190,1.0,3.0,71,0.00,,,0.00,0,LWC V2.00 B727,2013-02-14 12:23:00,
2013-02-14 05:28:00,16.6,8.9,30.55,South,190,1.0,2.0,71,0.00,,,0.00,0,LWC V2.00 B727,2013-02-14 12:28:00,
2013-02-14 05:33:00,16.6,8.9,30.55,South,190,0.0,2.0,71,0.00,,,0.00,0,LWC V2.00 B727,2013-02-14 12:33:00,
2013-02-14 05:38:00,16.5,8.8,30.54,South,190,0.0,2.0,71,0.00,,,0.00,0,LWC V2.00 B727,2013-02-14 12:38:00,
2013-02-14 05:43:00,16.4,8.7,30.54,South,190,1.0,3.0,71,0.00,,,0.00,0,LWC V2.00 B727,2013-02-14 12:43:00,
2013-02-14 05:48:00,16.3,8.9,30.54,South,189,1.0,3.0,72,0.00,,,0.00,0,LWC V2.00 B727,2013-02-14 12:48:00,
2013-02-14 05:53:00,16.6,9.2,30.55,South,189,1.0,4.0,72,0.00,,,0.00,0,LWC V2.00 B727,2013-02-14 12:53:00,
2013-02-14 05:58:00,16.8,9.1,30.54,South,188,0.0,2.0,71,0.00,,,0.00,0,LWC V2.00 B727,2013-02-14 12:58:00,
2013-02-14 06:03:00,16.8,9.1,30.55,South,189,1.0,3.0,71,0.00,,,0.00,0,LWC V2.00 B727,2013-02-14 13:03:00,
2013-02-14 06:08:00,16.7,9.0,30.54,South,187,1.0,3.0,71,0.00,,,0.00,0,LWC V2.00 B727,2013-02-14 13:08:00,
2013-02-14 06:13:00,16.6,8.9,30.55,South,187,2.0,3.0,71,0.00,,,0.00,0,LWC V2.00 B727,2013-02-14 13:13:00,
2013-02-14 06:18:00,16.4,8.7,30.55,South,187,1.0,3.0,71,0.00,,,0.00,0,LWC V2.00 B727,2013-02-14 13:18:00,
2013-02-14 06:23:00,16.3,8.6,30.55,South,187,0.0,2.0,71,0.00,,,0.00,0,LWC V2.00 B727,2013-02-14 13:23:00,
2013-02-14 06:28:00,16.2,8.5,30.55,South,187,0.0,2.0,71,0.00,,,0.00,0,LWC V2.00 B727,2013-02-14 13:28:00,
2013-02-14 06:33:00,16.2,8.8,30.55,South,187,0.0,1.0,72,0.00,,,0.00,0,LWC V2.00 B727,2013-02-14 13:33:00,
2013-02-14 06:38:00,16.1,8.7,30.56,South,187,0.0,0.0,72,0.00,,,0.00,0,LWC V2.00 B727,2013-02-14 13:38:00,
2013-02-14 06:43:00,16.0,8.6,30.55,South,187,0.0,0.0,72,0.00,,,0.00,0,LWC V2.00 B727,2013-02-14 13:43:00,
2013-02-14 06:48:00,15.8,8.1,30.56,South,187,1.0,1.0,71,0.00,,,0.00,0,LWC V2.00 B727,2013-02-14 13:48:00,
2013-02-14 06:53:00,15.6,8.5,30.56,South,187,1.0,1.0,73,0.00,,,0.00,5,LWC V2.00 B727,2013-02-14 13:53:00,
2013-02-14 06:58:00,15.6,8.5,30.56,South,187,0.0,2.0,73,0.00,,,0.00,7,LWC V2.00 B727,2013-02-14 13:58:00,
2013-02-14 07:03:00,15.7,8.6,30.56,South,187,1.0,2.0,73,0.00,,,0.00,9,LWC V2.00 B727,2013-02-14 14:03:00,
2013-02-14 07:08:00,15.7,8.6,30.57,South,187,0.0,2.0,73,0.00,,,0.00,11,LWC V2.00 B727,2013-02-14 14:08:00,
2013-02-14 07:13:00,15.7,8.6,30.57,South,187,1.0,1.0,73,0.00,,,0.00,12,LWC V2.00 B727,2013-02-14 14:13:00,
2013-02-14 07:18:00,15.7,8.6,30.57,South,187,1.0,2.0,73,0.00,,,0.00,16,LWC V2.00 B727,2013-02-14 14:18:00,
2013-02-14 07:23:00,15.8,8.7,30.57,South,187,1.0,2.0,73,0.00,,,0.00,18,LWC V2.00 B727,2013-02-14 14:23:00,
2013-02-14 07:28:00,16.1,9.3,30.57,South,187,1.0,3.0,74,0.00,,,0.00,23,LWC V2.00 B727,2013-02-14 14:28:00,
2013-02-14 07:33:00,16.4,9.3,30.57,South,187,0.0,3.0,73,0.00,,,0.00,63,LWC V2.00 B727,2013-02-14 14:33:00,
2013-02-14 07:38:00,16.8,9.7,30.57,South,187,1.0,2.0,73,0.00,,,0.00,102,LWC V2.00 B727,2013-02-14 14:38:00,
2013-02-14 07:43:00,17.3,10.2,30.57,South,187,0.0,3.0,73,0.00,,,0.00,148,LWC V2.00 B727,2013-02-14 14:43:00,
2013-02-14 07:48:00,17.9,10.4,30.57,South,187,2.0,3.0,72,0.00,,,0.00,116,LWC V2.00 B727,2013-02-14 14:48:00,
2013-02-14 07:53:00,18.4,10.6,30.57,South,187,1.0,2.0,71,0.00,,,0.00,137,LWC V2.00 B727,2013-02-14 14:53:00,
2013-02-14 07:58:00,19.0,10.9,30.58,South,187,3.0,3.0,70,0.00,,,0.00,199,LWC V2.00 B727,2013-02-14 14:58:00,
2013-02-14 08:03:00,19.7,11.2,30.57,South,187,0.0,1.0,69,0.00,,,0.00,250,LWC V2.00 B727,2013-02-14 15:03:00,
2013-02-14 08:08:00,20.3,11.8,30.57,South,187,0.0,2.0,69,0.00,,,0.00,271,LWC V2.00 B727,2013-02-14 15:08:00,
2013-02-14 08:13:00,21.2,12.3,30.58,South,187,0.0,0.0,68,0.00,,,0.00,253,LWC V2.00 B727,2013-02-14 15:13:00,
2013-02-14 08:18:00,22.0,12.7,30.57,South,187,1.0,2.0,67,0.00,,,0.00,241,LWC V2.00 B727,2013-02-14 15:18:00,
2013-02-14 08:23:00,22.9,13.3,30.57,South,187,0.0,2.0,66,0.00,,,0.00,200,LWC V2.00 B727,2013-02-14 15:23:00,
2013-02-14 08:28:00,23.5,13.1,30.57,South,187,0.0,1.0,64,0.00,,,0.00,327,LWC V2.00 B727,2013-02-14 15:28:00,
2013-02-14 08:33:00,23.9,13.9,30.57,South,187,0.0,0.0,65,0.00,,,0.00,323,LWC V2.00 B727,2013-02-14 15:33:00,
2013-02-14 08:38:00,24.4,14.4,30.57,South,187,0.0,0.0,65,0.00,,,0.00,348,LWC V2.00 B727,2013-02-14 15:38:00,
2013-02-14 08:43:00,25.1,14.3,30.57,South,187,0.0,0.0,63,0.00,,,0.00,207,LWC V2.00 B727,2013-02-14 15:43:00,
2013-02-14 08:48:00,25.7,14.9,30.57,South,187,0.0,0.0,63,0.00,,,0.00,318,LWC V2.00 B727,2013-02-14 15:48:00,
2013-02-14 08:53:00,26.4,15.2,30.57,South,187,0.0,3.0,62,0.00,,,0.00,417,LWC V2.00 B727,2013-02-14 15:53:00,
2013-02-14 08:58:00,27.2,15.6,30.57,South,187,1.0,2.0,61,0.00,,,0.00,448,LWC V2.00 B727,2013-02-14 15:58:00,
2013-02-14 09:03:00,27.9,15.8,30.56,South,187,1.0,3.0,60,0.00,,,0.00,464,LWC V2.00 B727,2013-02-14 16:03:00,
2013-02-14 09:08:00,28.4,15.9,30.57,South,187,1.0,2.0,59,0.00,,,0.00,480,LWC V2.00 B727,2013-02-14 16:08:00,
2013-02-14 09:13:00,28.9,16.4,30.57,South,187,3.0,3.0,59,0.00,,,0.00,492,LWC V2.00 B727,2013-02-14 16:13:00,
2013-02-14 09:18:00,29.4,16.9,30.57,South,187,1.0,5.0,59,0.00,,,0.00,510,LWC V2.00 B727,2013-02-14 16:18:00,
2013-02-14 09:23:00,29.7,16.4,30.57,SSE,150,1.0,3.0,57,0.00,,,0.00,526,LWC V2.00 B727,2013-02-14 16:23:00,
2013-02-14 09:28:00,30.1,16.3,30.57,North,0,2.0,5.0,56,0.00,,,0.00,541,LWC V2.00 B727,2013-02-14 16:28:00,
2013-02-14 09:33:00,30.3,17.3,30.57,SSW,206,2.0,2.0,58,0.00,,,0.00,552,LWC V2.00 B727,2013-02-14 16:33:00,
2013-02-14 09:38:00,30.7,17.3,30.57,SW,215,0.0,3.0,57,0.00,,,0.00,568,LWC V2.00 B727,2013-02-14 16:38:00,
2013-02-14 09:43:00,31.1,17.3,30.57,SW,232,0.0,5.0,56,0.00,,,0.00,582,LWC V2.00 B727,2013-02-14 16:43:00,
2013-02-14 09:48:00,31.4,17.1,30.57,North,355,0.0,3.0,55,0.00,,,0.00,598,LWC V2.00 B727,2013-02-14 16:48:00,
2013-02-14 09:53:00,31.8,17.5,30.57,North,5,1.0,3.0,55,0.00,,,0.00,610,LWC V2.00 B727,2013-02-14 16:53:00,
2013-02-14 09:58:00,32.0,16.8,30.56,NNE,17,0.0,3.0,53,0.00,,,0.00,622,LWC V2.00 B727,2013-02-14 16:58:00,
2013-02-14 10:03:00,32.2,17.4,30.56,North,0,3.0,5.0,54,0.00,,,0.00,635,LWC V2.00 B727,2013-02-14 17:03:00,
2013-02-14 10:08:00,32.5,17.7,30.56,North,0,1.0,3.0,54,0.00,,,0.00,647,LWC V2.00 B727,2013-02-14 17:08:00,
2013-02-14 10:13:00,32.8,18.0,30.56,North,0,1.0,1.0,54,0.00,,,0.00,657,LWC V2.00 B727,2013-02-14 17:13:00,
2013-02-14 10:18:00,33.3,18.0,30.56,West,280,1.0,4.0,53,0.00,,,0.00,670,LWC V2.00 B727,2013-02-14 17:18:00,
2013-02-14 10:23:00,33.6,17.4,30.56,North,355,3.0,3.0,51,0.00,,,0.00,680,LWC V2.00 B727,2013-02-14 17:23:00,
2013-02-14 10:28:00,33.9,18.2,30.56,North,11,1.0,4.0,52,0.00,,,0.00,691,LWC V2.00 B727,2013-02-14 17:28:00,
2013-02-14 10:33:00,34.3,18.5,30.55,NW,306,1.0,3.0,52,0.00,,,0.00,701,LWC V2.00 B727,2013-02-14 17:33:00,
2013-02-14 10:38:00,34.5,18.3,30.55,WNW,302,1.0,4.0,51,0.00,,,0.00,714,LWC V2.00 B727,2013-02-14 17:38:00,
2013-02-14 10:43:00,34.8,18.5,30.55,SSW,196,0.0,3.0,51,0.00,,,0.00,719,LWC V2.00 B727,2013-02-14 17:43:00,
2013-02-14 10:48:00,35.2,18.0,30.55,NW,326,1.0,4.0,49,0.00,,,0.00,728,LWC V2.00 B727,2013-02-14 17:48:00,
2013-02-14 10:53:00,35.5,19.2,30.55,NNW,333,3.0,5.0,51,0.00,,,0.00,735,LWC V2.00 B727,2013-02-14 17:53:00,
2013-02-14 10:58:00,35.7,18.0,30.54,NNW,333,0.0,4.0,48,0.00,,,0.00,744,LWC V2.00 B727,2013-02-14 17:58:00,
2013-02-14 11:03:00,35.9,19.1,30.54,North,350,5.0,5.0,50,0.00,,,0.00,751,LWC V2.00 B727,2013-02-14 18:03:00,
2013-02-14 11:08:00,36.1,18.8,30.54,SSW,203,3.0,3.0,49,0.00,,,0.00,758,LWC V2.00 B727,2013-02-14 18:08:00,
2013-02-14 11:13:00,36.4,19.1,30.54,NNE,21,0.0,3.0,49,0.00,,,0.00,763,LWC V2.00 B727,2013-02-14 18:13:00,
2013-02-14 11:18:00,36.6,19.3,30.53,North,0,4.0,6.0,49,0.00,,,0.00,770,LWC V2.00 B727,2013-02-14 18:18:00,
2013-02-14 11:23:00,36.6,19.7,30.52,North,0,1.0,1.0,50,0.00,,,0.00,773,LWC V2.00 B727,2013-02-14 18:23:00,
2013-02-14 11:26:00,36.7,19.8,30.52,North,0,3.0,3.0,50,0.00,,,0.00,773,LWC V2.00 B727,2013-02-14 18:26:00,
2013-02-14 11:31:00,36.9,20.9,30.52,NNE,30,1.0,4.0,52,0.00,,,0.00,780,LWC V2.00 B727,2013-02-14 18:31:00,
2013-02-14 11:36:00,37.0,20.6,30.52,West,268,0.0,4.0,51,0.00,,,0.00,786,LWC V2.00 B727,2013-02-14 18:36:00,
2013-02-14 11:41:00,37.2,20.3,30.51,North,355,0.0,3.0,50,0.00,,,0.00,788,LWC V2.00 B727,2013-02-14 18:41:00,
2013-02-14 11:46:00,37.4,20.0,30.51,NNE,32,4.0,4.0,49,0.00,,,0.00,791,LWC V2.00 B727,2013-02-14 18:46:00,
2013-02-14 11:51:00,37.6,21.6,30.51,NNE,32,0.0,3.0,52,0.00,,,0.00,791,LWC V2.00 B727,2013-02-14 18:51:00,
2013-02-14 11:56:00,38.0,22.4,30.50,WSW,244,5.0,10.0,53,0.00,,,0.00,798,LWC V2.00 B727,2013-02-14 18:56:00,
2013-02-14 12:01:00,38.5,22.9,30.50,WSW,239,1.0,5.0,53,0.00,,,0.00,802,LWC V2.00 B727,2013-02-14 19:01:00,
2013-02-14 12:06:00,39.1,22.0,30.50,WSW,250,1.0,6.0,50,0.00,,,0.00,802,LWC V2.00 B727,2013-02-14 19:06:00,
2013-02-14 12:11:00,39.5,21.0,30.49,NE,44,4.0,5.0,47,0.00,,,0.00,805,LWC V2.00 B727,2013-02-14 19:11:00,
2013-02-14 12:16:00,39.5,21.0,30.49,WNW,303,6.0,9.0,47,0.00,,,0.00,802,LWC V2.00 B727,2013-02-14 19:16:00,
2013-02-14 12:21:00,39.3,20.3,30.49,North,5,4.0,7.0,46,0.00,,,0.00,803,LWC V2.00 B727,2013-02-14 19:21:00,
2013-02-14 12:26:00,39.0,20.5,30.49,NNW,329,4.0,6.0,47,0.00,,,0.00,800,LWC V2.00 B727,2013-02-14 19:26:00,
2013-02-14 12:31:00,38.6,19.6,30.49,NNW,345,6.0,8.0,46,0.00,,,0.00,800,LWC V2.00 B727,2013-02-14 19:31:00,
2013-02-14 12:36:00,38.4,20.4,30.49,SW,225,1.0,10.0,48,0.00,,,0.00,802,LWC V2.00 B727,2013-02-14 19:36:00,
2013-02-14 12:41:00,38.5,20.5,30.49,SW,234,2.0,4.0,48,0.00,,,0.00,803,LWC V2.00 B727,2013-02-14 19:41:00,
2013-02-14 12:46:00,38.6,19.6,30.49,North,0,1.0,7.0,46,0.00,,,0.00,798,LWC V2.00 B727,2013-02-14 19:46:00,
2013-02-14 12:51:00,38.9,21.9,30.49,West,271,4.0,4.0,50,0.00,,,0.00,802,LWC V2.00 B727,2013-02-14 19:51:00,
2013-02-14 12:56:00,39.1,19.0,30.49,North,5,1.0,7.0,44,0.00,,,0.00,807,LWC V2.00 B727,2013-02-14 19:56:00,
2013-02-14 13:01:00,39.1,19.6,30.49,NW,319,0.0,7.0,45,0.00,,,0.00,789,LWC V2.00 B727,2013-02-14 20:01:00,
2013-02-14 13:06:00,39.1,18.5,30.49,NNE,17,4.0,8.0,43,0.00,,,0.00,784,LWC V2.00 B727,2013-02-14 20:06:00,
2013-02-14 13:11:00,39.1,18.5,30.49,North,355,5.0,6.0,43,0.00,,,0.00,782,LWC V2.00 B727,2013-02-14 20:11:00,
2013-02-14 13:16:00,39.1,19.0,30.49,North,0,1.0,4.0,44,0.00,,,0.00,780,LWC V2.00 B727,2013-02-14 20:16:00,
2013-02-14 13:21:00,39.3,19.8,30.48,NW,325,1.0,4.0,45,0.00,,,0.00,770,LWC V2.00 B727,2013-02-14 20:21:00,
2013-02-14 13:26:00,39.6,22.0,30.49,NW,311,1.0,3.0,49,0.00,,,0.00,765,LWC V2.00 B727,2013-02-14 20:26:00,
2013-02-14 13:31:00,40.0,20.4,30.49,WSW,252,3.0,7.0,45,0.00,,,0.00,758,LWC V2.00 B727,2013-02-14 20:31:00,
2013-02-14 13:36:00,40.5,19.8,30.49,North,355,5.0,5.0,43,0.00,,,0.00,752,LWC V2.00 B727,2013-02-14 20:36:00,
2013-02-14 13:41:00,40.3,19.1,30.49,West,277,0.0,3.0,42,0.00,,,0.00,744,LWC V2.00 B727,2013-02-14 20:41:00,
2013-02-14 13:46:00,40.4,18.6,30.49,NNW,334,0.0,4.0,41,0.00,,,0.00,735,LWC V2.00 B727,2013-02-14 20:46:00,
2013-02-14 13:51:00,40.7,20.5,30.48,WNW,291,1.0,3.0,44,0.00,,,0.00,728,LWC V2.00 B727,2013-02-14 20:51:00,
2013-02-14 13:56:00,41.0,20.8,30.49,North,0,3.0,6.0,44,0.00,,,0.00,715,LWC V2.00 B727,2013-02-14 20:56:00,
2013-02-14 14:01:00,41.1,19.2,30.49,North,0,6.0,6.0,41,0.00,,,0.00,707,LWC V2.00 B727,2013-02-14 21:01:00,
2013-02-14 14:06:00,40.9,19.6,30.49,NNW,334,2.0,5.0,42,0.00,,,0.00,696,LWC V2.00 B727,2013-02-14 21:06:00,
2013-02-14 14:11:00,40.7,19.4,30.49,North,350,3.0,6.0,42,0.00,,,0.00,689,LWC V2.00 B727,2013-02-14 21:11:00,
2013-02-14 14:16:00,40.5,18.7,30.49,NNE,19,5.0,5.0,41,0.00,,,0.00,675,LWC V2.00 B727,2013-02-14 21:16:00,
2013-02-14 14:21:00,40.3,17.9,30.49,WNW,286,2.0,4.0,40,0.00,,,0.00,664,LWC V2.00 B727,2013-02-14 21:21:00,
2013-02-14 14:26:00,40.4,19.7,30.49,North,350,6.0,7.0,43,0.00,,,0.00,652,LWC V2.00 B727,2013-02-14 21:26:00,
2013-02-14 14:31:00,40.4,19.1,30.49,North,10,0.0,5.0,42,0.00,,,0.00,640,LWC V2.00 B727,2013-02-14 21:31:00,
2013-02-14 14:36:00,40.8,18.9,30.49,WNW,283,1.0,4.0,41,0.00,,,0.00,631,LWC V2.00 B727,2013-02-14 21:36:00,
2013-02-14 14:41:00,41.1,19.2,30.49,North,350,3.0,3.0,41,0.00,,,0.00,617,LWC V2.00 B727,2013-02-14 21:41:00,
2013-02-14 14:46:00,41.3,18.2,30.49,NNE,32,1.0,6.0,39,0.00,,,0.00,606,LWC V2.00 B727,2013-02-14 21:46:00,
2013-02-14 14:51:00,41.5,19.0,30.49,South,190,1.0,5.0,40,0.00,,,0.00,592,LWC V2.00 B727,2013-02-14 21:51:00,
2013-02-14 14:56:00,42.0,20.0,30.49,SSW,192,0.0,0.0,41,0.00,,,0.00,584,LWC V2.00 B727,2013-02-14 21:56:00,
2013-02-14 15:01:00,42.6,18.8,30.50,North,5,3.0,6.0,38,0.00,,,0.00,566,LWC V2.00 B727,2013-02-14 22:01:00,
2013-02-14 15:06:00,42.5,17.4,30.50,NW,322,10.0,10.0,36,0.00,,,0.00,548,LWC V2.00 B727,2013-02-14 22:06:00,
2013-02-14 15:11:00,41.9,19.4,30.49,NNE,24,7.0,10.0,40,0.00,,,0.00,534,LWC V2.00 B727,2013-02-14 22:11:00,
2013-02-14 15:16:00,41.3,18.2,30.50,NNE,14,5.0,6.0,39,0.00,,,0.00,522,LWC V2.00 B727,2013-02-14 22:16:00,
2013-02-14 15:21:00,41.1,16.2,30.50,NNW,348,6.0,9.0,36,0.00,,,0.00,508,LWC V2.00 B727,2013-02-14 22:21:00,
2013-02-14 15:26:00,40.9,17.3,30.50,NNW,338,5.0,7.0,38,0.00,,,0.00,501,LWC V2.00 B727,2013-02-14 22:26:00,
2013-02-14 15:31:00,40.9,16.0,30.50,North,0,4.0,9.0,36,0.00,,,0.00,492,LWC V2.00 B727,2013-02-14 22:31:00,
2013-02-14 15:36:00,40.6,14.5,30.51,NNW,342,7.0,9.0,34,0.00,,,0.00,475,LWC V2.00 B727,2013-02-14 22:36:00,
2013-02-14 15:41:00,40.4,15.6,30.51,North,0,4.0,7.0,36,0.00,,,0.00,457,LWC V2.00 B727,2013-02-14 22:41:00,
2013-02-14 15:46:00,40.1,14.7,30.51,North,5,7.0,12.0,35,0.00,,,0.00,439,LWC V2.00 B727,2013-02-14 22:46:00,
2013-02-14 15:51:00,40.0,15.2,30.52,North,5,7.0,9.0,36,0.00,,,0.00,422,LWC V2.00 B727,2013-02-14 22:51:00,
2013-02-14 15:56:00,39.8,15.7,30.52,NNE,14,8.0,10.0,37,0.00,,,0.00,410,LWC V2.00 B727,2013-02-14 22:56:00,
2013-02-14 16:01:00,39.6,14.9,30.52,NNW,333,4.0,8.0,36,0.00,,,0.00,406,LWC V2.00 B727,2013-02-14 23:01:00,
2013-02-14 16:06:00,39.6,14.9,30.52,North,11,6.0,14.0,36,0.00,,,0.00,403,LWC V2.00 B727,2013-02-14 23:06:00,
2013-02-14 16:11:00,39.4,15.3,30.52,North,355,6.0,12.0,37,0.00,,,0.00,394,LWC V2.00 B727,2013-02-14 23:11:00,
2013-02-14 16:16:00,39.3,16.4,30.52,NNE,13,6.0,7.0,39,0.00,,,0.00,380,LWC V2.00 B727,2013-02-14 23:16:00,
2013-02-14 16:21:00,39.2,15.8,30.52,North,5,7.0,11.0,38,0.00,,,0.00,357,LWC V2.00 B727,2013-02-14 23:21:00,
2013-02-14 16:26:00,39.1,16.3,30.52,North,355,5.0,7.0,39,0.00,,,0.00,323,LWC V2.00 B727,2013-02-14 23:26:00,
2013-02-14 16:31:00,38.9,15.5,30.52,North,355,2.0,7.0,38,0.00,,,0.00,301,LWC V2.00 B727,2013-02-14 23:31:00,
2013-02-14 16:36:00,38.9,16.1,30.52,North,10,5.0,5.0,39,0.00,,,0.00,271,LWC V2.00 B727,2013-02-14 23:36:00,
2013-02-14 16:41:00,38.8,16.0,30.52,North,0,5.0,7.0,39,0.00,,,0.00,241,LWC V2.00 B727,2013-02-14 23:41:00,
2013-02-14 16:46:00,38.3,15.5,30.52,NNE,13,3.0,4.0,39,0.00,,,0.00,204,LWC V2.00 B727,2013-02-14 23:46:00,
2013-02-14 16:51:00,38.0,14.7,30.52,North,11,4.0,6.0,38,0.00,,,0.00,172,LWC V2.00 B727,2013-02-14 23:51:00,
2013-02-14 16:56:00,37.7,14.4,30.52,North,350,5.0,6.0,38,0.00,,,0.00,142,LWC V2.00 B727,2013-02-14 23:56:00,
2013-02-14 17:01:00,37.5,15.4,30.53,North,355,5.0,5.0,40,0.00,,,0.00,114,LWC V2.00 B727,2013-02-15 00:01:00,
2013-02-14 17:06:00,37.3,14.6,30.53,North,355,3.0,7.0,39,0.00,,,0.00,93,LWC V2.00 B727,2013-02-15 00:06:00,
2013-02-14 17:11:00,37.1,14.5,30.53,NNE,15,6.0,6.0,39,0.00,,,0.00,33,LWC V2.00 B727,2013-02-15 00:11:00,
2013-02-14 17:16:00,36.7,14.1,30.54,NNE,15,2.0,2.0,39,0.00,,,0.00,32,LWC V2.00 B727,2013-02-15 00:16:00,
2013-02-14 17:21:00,36.5,13.9,30.54,NNW,348,3.0,4.0,39,0.00,,,0.00,23,LWC V2.00 B727,2013-02-15 00:21:00,
2013-02-14 17:26:00,36.2,14.2,30.54,NNW,348,3.0,3.0,40,0.00,,,0.00,12,LWC V2.00 B727,2013-02-15 00:26:00,
2013-02-14 17:31:00,35.7,13.8,30.54,North,0,2.0,5.0,40,0.00,,,0.00,12,LWC V2.00 B727,2013-02-15 00:31:00,
2013-02-14 17:36:00,35.2,13.9,30.55,North,0,0.0,2.0,41,0.00,,,0.00,11,LWC V2.00 B727,2013-02-15 00:36:00,
2013-02-14 17:41:00,34.7,14.0,30.55,North,0,2.0,2.0,42,0.00,,,0.00,7,LWC V2.00 B727,2013-02-15 00:41:00,
2013-02-14 17:46:00,34.2,14.1,30.55,North,0,0.0,1.0,43,0.00,,,0.00,0,LWC V2.00 B727,2013-02-15 00:46:00,
2013-02-14 17:51:00,33.7,13.1,30.55,North,0,0.0,3.0,42,0.00,,,0.00,0,LWC V2.00 B727,2013-02-15 00:51:00,
2013-02-14 17:56:00,33.3,13.2,30.55,North,0,0.0,0.0,43,0.00,,,0.00,0,LWC V2.00 B727,2013-02-15 00:56:00,
2013-02-14 18:01:00,32.8,12.8,30.55,North,0,0.0,0.0,43,0.00,,,0.00,0,LWC V2.00 B727,2013-02-15 01:01:00,
2013-02-14 18:06:00,32.3,12.9,30.55,North,0,0.0,0.0,44,0.00,,,0.00,0,LWC V2.00 B727,2013-02-15 01:06:00,
2013-02-14 18:11:00,31.6,12.7,30.56,North,0,0.0,0.0,45,0.00,,,0.00,0,LWC V2.00 B727,2013-02-15 01:11:00,
2013-02-14 18:16:00,31.1,11.8,30.56,North,0,0.0,0.0,44,0.00,,,0.00,0,LWC V2.00 B727,2013-02-15 01:16:00,
2013-02-14 18:21:00,30.6,12.3,30.56,North,0,0.0,0.0,46,0.00,,,0.00,0,LWC V2.00 B727,2013-02-15 01:21:00,
2013-02-14 18:26:00,29.9,13.1,30.57,North,0,0.0,0.0,49,0.00,,,0.00,0,LWC V2.00 B727,2013-02-15 01:26:00,
2013-02-14 18:31:00,29.0,12.7,30.57,North,0,1.0,2.0,50,0.00,,,0.00,0,LWC V2.00 B727,2013-02-15 01:31:00,
2013-02-14 18:36:00,28.4,13.0,30.57,North,0,0.0,2.0,52,0.00,,,0.00,0,LWC V2.00 B727,2013-02-15 01:36:00,
2013-02-14 18:41:00,27.9,13.4,30.58,North,0,1.0,2.0,54,0.00,,,0.00,0,LWC V2.00 B727,2013-02-15 01:41:00,
2013-02-14 18:46:00,27.5,13.5,30.58,North,0,1.0,2.0,55,0.00,,,0.00,0,LWC V2.00 B727,2013-02-15 01:46:00,
2013-02-14 18:51:00,27.2,13.6,30.58,North,0,1.0,2.0,56,0.00,,,0.00,0,LWC V2.00 B727,2013-02-15 01:51:00,
2013-02-14 18:56:00,26.9,13.7,30.58,North,0,0.0,0.0,57,0.00,,,0.00,0,LWC V2.00 B727,2013-02-15 01:56:00,
2013-02-14 19:01:00,26.7,13.5,30.58,North,0,0.0,1.0,57,0.00,,,0.00,0,LWC V2.00 B727,2013-02-15 02:01:00,
2013-02-14 19:06:00,26.4,13.7,30.57,North,0,1.0,2.0,58,0.00,,,0.00,0,LWC V2.00 B727,2013-02-15 02:06:00,
2013-02-14 19:11:00,26.3,13.2,30.58,North,0,2.0,2.0,57,0.00,,,0.00,0,LWC V2.00 B727,2013-02-15 02:11:00,
2013-02-14 19:16:00,26.0,13.3,30.58,North,0,2.0,2.0,58,0.00,,,0.00,0,LWC V2.00 B727,2013-02-15 02:16:00,
2013-02-14 19:21:00,25.8,13.1,30.58,North,355,1.0,2.0,58,0.00,,,0.00,0,LWC V2.00 B727,2013-02-15 02:21:00,
2013-02-14 19:26:00,25.7,12.6,30.58,North,355,1.0,1.0,57,0.00,,,0.00,0,LWC V2.00 B727,2013-02-15 02:26:00,
2013-02-14 19:31:00,25.6,12.9,30.58,SE,132,2.0,3.0,58,0.00,,,0.00,0,LWC V2.00 B727,2013-02-15 02:31:00,
2013-02-14 19:36:00,25.5,12.8,30.58,SE,133,1.0,2.0,58,0.00,,,0.00,0,LWC V2.00 B727,2013-02-15 02:36:00,
2013-02-14 19:41:00,25.5,12.8,30.58,SE,133,0.0,3.0,58,0.00,,,0.00,0,LWC V2.00 B727,2013-02-15 02:41:00,
2013-02-14 19:46:00,25.4,12.7,30.58,SE,133,2.0,2.0,58,0.00,,,0.00,0,LWC V2.00 B727,2013-02-15 02:46:00,
2013-02-14 19:51:00,25.3,12.6,30.58,South,171,3.0,4.0,58,0.00,,,0.00,0,LWC V2.00 B727,2013-02-15 02:51:00,
2013-02-14 19:56:00,25.4,12.3,30.58,SSE,153,2.0,2.0,57,0.00,,,0.00,0,LWC V2.00 B727,2013-02-15 02:56:00,
2013-02-14 20:01:00,25.7,12.6,30.59,SSE,159,3.0,3.0,57,0.00,,,0.00,0,LWC V2.00 B727,2013-02-15 03:01:00,
2013-02-14 20:06:00,25.6,12.5,30.59,SSE,161,2.0,3.0,57,0.00,,,0.00,0,LWC V2.00 B727,2013-02-15 03:06:00,
2013-02-14 20:11:00,25.3,12.2,30.59,South,173,1.0,4.0,57,0.00,,,0.00,0,LWC V2.00 B727,2013-02-15 03:11:00,
2013-02-14 20:16:00,25.0,11.9,30.59,South,172,2.0,3.0,57,0.00,,,0.00,0,LWC V2.00 B727,2013-02-15 03:16:00,
2013-02-14 20:21:00,24.8,12.1,30.59,South,170,2.0,3.0,58,0.00,,,0.00,0,LWC V2.00 B727,2013-02-15 03:21:00,
2013-02-14 20:26:00,24.8,11.8,30.59,SSE,167,3.0,3.0,57,0.00,,,0.00,0,LWC V2.00 B727,2013-02-15 03:26:00,
2013-02-14 20:31:00,24.6,11.6,30.59,South,171,3.0,4.0,57,0.00,,,0.00,0,LWC V2.00 B727,2013-02-15 03:31:00,
2013-02-14 20:36:00,24.5,11.5,30.59,South,188,2.0,6.0,57,0.00,,,0.00,0,LWC V2.00 B727,2013-02-15 03:36:00,
2013-02-14 20:41:00,24.3,11.3,30.59,South,188,0.0,2.0,57,0.00,,,0.00,0,LWC V2.00 B727,2013-02-15 03:41:00,
2013-02-14 20:46:00,24.2,11.2,30.60,SSE,160,2.0,3.0,57,0.00,,,0.00,0,LWC V2.00 B727,2013-02-15 03:46:00,
2013-02-14 20:51:00,24.2,11.2,30.60,SE,136,1.0,2.0,57,0.00,,,0.00,0,LWC V2.00 B727,2013-02-15 03:51:00,
2013-02-14 20:56:00,24.2,11.2,30.60,SE,141,3.0,3.0,57,0.00,,,0.00,0,LWC V2.00 B727,2013-02-15 03:56:00,
2013-02-14 21:01:00,24.4,11.0,30.61,SSE,161,2.0,4.0,56,0.00,,,0.00,0,LWC V2.00 B727,2013-02-15 04:01:00,
2013-02-14 21:06:00,24.4,11.0,30.61,SSE,163,1.0,4.0,56,0.00,,,0.00,0,LWC V2.00 B727,2013-02-15 04:06:00,
2013-02-14 21:11:00,24.2,11.2,30.61,South,169,0.0,3.0,57,0.00,,,0.00,0,LWC V2.00 B727,2013-02-15 04:11:00,
2013-02-14 21:16:00,23.9,10.9,30.62,SSE,168,0.0,3.0,57,0.00,,,0.00,0,LWC V2.00 B727,2013-02-15 04:16:00,
2013-02-14 21:21:00,23.6,11.0,30.62,South,169,1.0,2.0,58,0.00,,,0.00,0,LWC V2.00 B727,2013-02-15 04:21:00,
2013-02-14 21:26:00,23.4,10.8,30.62,SSE,168,3.0,3.0,58,0.00,,,0.00,0,LWC V2.00 B727,2013-02-15 04:26:00,
2013-02-14 21:31:00,23.2,10.6,30.62,South,170,0.0,0.0,58,0.00,,,0.00,0,LWC V2.00 B727,2013-02-15 04:31:00,
2013-02-14 21:36:00,23.1,10.5,30.62,South,169,1.0,2.0,58,0.00,,,0.00,0,LWC V2.00 B727,2013-02-15 04:36:00,
2013-02-14 21:41:00,23.1,10.9,30.62,South,169,2.0,2.0,59,0.00,,,0.00,0,LWC V2.00 B727,2013-02-15 04:41:00,
2013-02-14 21:46:00,22.9,10.7,30.63,SSE,168,0.0,2.0,59,0.00,,,0.00,0,LWC V2.00 B727,2013-02-15 04:46:00,
2013-02-14 21:51:00,22.6,10.5,30.63,SSE,156,0.0,1.0,59,0.00,,,0.00,0,LWC V2.00 B727,2013-02-15 04:51:00,
2013-02-14 21:56:00,22.3,10.6,30.63,SSE,156,2.0,3.0,60,0.00,,,0.00,0,LWC V2.00 B727,2013-02-15 04:56:00,
2013-02-14 22:00:00,22.1,10.7,30.63,SSE,156,1.0,2.0,61,0.00,,,0.00,0,LWC V2.00 B727,2013-02-15 05:00:00,
2013-02-14 22:05:00,21.8,10.8,30.63,SSE,157,0.0,0.0,62,0.00,,,0.00,0,LWC V2.00 B727,2013-02-15 05:05:00,
2013-02-14 22:10:00,21.5,10.5,30.63,SSE,157,0.0,2.0,62,0.00,,,0.00,0,LWC V2.00 B727,2013-02-15 05:10:00,
2013-02-14 22:12:00,21.3,10.3,30.63,SSE,157,1.0,2.0,62,0.00,,,0.00,0,LWC V2.00 B727,2013-02-15 05:12:00,
2013-02-14 22:17:00,21.2,10.2,30.63,SSE,157,1.0,3.0,62,0.00,,,0.00,0,LWC V2.00 B727,2013-02-15 05:17:00,
2013-02-14 22:22:00,20.9,10.0,30.63,SSE,157,1.0,2.0,62,0.00,,,0.00,0,LWC V2.00 B727,2013-02-15 05:22:00,
2013-02-14 22:27:00,20.8,9.9,30.63,SSE,168,3.0,3.0,62,0.00,,,0.00,0,LWC V2.00 B727,2013-02-15 05:27:00,
2013-02-14 22:32:00,20.9,9.6,30.63,SSE,167,1.0,3.0,61,0.00,,,0.00,0,LWC V2.00 B727,2013-02-15 05:32:00,
2013-02-14 22:37:00,21.0,9.7,30.63,SSE,164,1.0,2.0,61,0.00,,,0.00,0,LWC V2.00 B727,2013-02-15 05:37:00,
2013-02-14 22:42:00,21.0,9.7,30.63,SSE,164,0.0,0.0,61,0.00,,,0.00,0,LWC V2.00 B727,2013-02-15 05:42:00,
2013-02-14 22:47:00,20.9,9.6,30.64,SSE,161,0.0,1.0,61,0.00,,,0.00,0,LWC V2.00 B727,2013-02-15 05:47:00,
2013-02-14 22:52:00,20.9,10.0,30.64,SSE,160,0.0,1.0,62,0.00,,,0.00,0,LWC V2.00 B727,2013-02-15 05:52:00,
2013-02-14 22:57:00,20.8,9.9,30.64,SSE,160,0.0,1.0,62,0.00,,,0.00,0,LWC V2.00 B727,2013-02-15 05:57:00,
2013-02-14 23:02:00,20.6,9.7,30.64,SSE,161,1.0,2.0,62,0.00,,,0.00,0,LWC V2.00 B727,2013-02-15 06:02:00,
2013-02-14 23:07:00,20.4,9.5,30.64,SSE,160,0.0,2.0,62,0.00,,,0.00,0,LWC V2.00 B727,2013-02-15 06:07:00,
2013-02-14 23:12:00,20.2,9.7,30.65,SSE,160,1.0,1.0,63,0.00,,,0.00,0,LWC V2.00 B727,2013-02-15 06:12:00,
2013-02-14 23:17:00,20.2,10.0,30.65,SSE,161,1.0,1.0,64,0.00,,,0.00,0,LWC V2.00 B727,2013-02-15 06:17:00,
2013-02-14 23:22:00,20.3,10.4,30.65,SSE,161,0.0,1.0,65,0.00,,,0.00,0,LWC V2.00 B727,2013-02-15 06:22:00,
2013-02-14 23:27:00,20.4,10.5,30.65,SSE,161,1.0,2.0,65,0.00,,,0.00,0,LWC V2.00 B727,2013-02-15 06:27:00,
2013-02-14 23:32:00,20.6,10.7,30.65,SSE,161,1.0,1.0,65,0.00,,,0.00,0,LWC V2.00 B727,2013-02-15 06:32:00,
2013-02-14 23:37:00,20.7,10.5,30.65,SSE,162,1.0,2.0,64,0.00,,,0.00,0,LWC V2.00 B727,2013-02-15 06:37:00,
2013-02-14 23:42:00,20.7,10.1,30.65,SSE,161,2.0,3.0,63,0.00,,,0.00,0,LWC V2.00 B727,2013-02-15 06:42:00,
2013-02-14 23:47:00,20.8,10.2,30.65,SSE,161,1.0,1.0,63,0.00,,,0.00,0,LWC V2.00 B727,2013-02-15 06:47:00,
2013-02-14 23:52:00,21.1,10.5,30.65,SSE,162,0.0,3.0,63,0.00,,,0.00,0,LWC V2.00 B727,2013-02-15 06:52:00,
2013-02-14 23:57:00,21.3,10.3,30.65,SSE,162,0.0,1.0,62,0.00,,,0.00,0,LWC V2.00 B727,2013-02-15 06:57:00,